GW0472 Weather Reports


time (UTC)temp
C
wind
direction
speed
KPH
gust
KPH
rain 1hr
cm
rain 24hr
cm
rain mn
cm
humidity
%
barometer
mb
20260506002155 24 173 11.3 16.1 0.00 0.00 0.00 38 1007.5
20260506001650 24 240 11.3 16.1 0.00 0.00 0.00 37 1007.2
20260506001148 24 209 14.5 20.9 0.00 0.00 0.00 37 1007.2
20260506000645 25 234 11.3 20.9 0.00 0.00 0.00 37 1007.2
20260506000142 24 227 12.9 25.7 0.00 0.00 0.00 37 1007.2
20260505235641 25 207 16.1 17.7 0.00 0.00 0.00 36 1007.1
20260505235138 25 147 25.7 35.4 0.00 0.00 0.00 36 1006.9
20260505234634 25 220 8.0 32.2 0.00 0.00 0.00 36 1007.2
20260505234131 25 167 14.5 25.7 0.00 0.00 0.00 36 1007.2
20260505233628 25 191 8.0 25.7 0.00 0.00 0.00 36 1007.1
20260505233126 25 221 17.7 32.2 0.00 0.00 0.00 35 1007.2
20260505232623 25 185 16.1 33.8 0.00 0.00 0.00 36 1007.1
20260505232121 25 202 9.7 22.5 0.00 0.00 0.00 37 1007.0
20260505231617 25 192 16.1 29.0 0.00 0.00 0.00 36 1007.0
20260505231116 26 195 8.0 24.1 0.00 0.00 0.00 37 1007.0
20260505230614 26 191 11.3 17.7 0.00 0.00 0.00 37 1007.0
20260505230110 26 196 11.3 32.2 0.00 0.00 0.00 35 1007.0
20260505225606 26 242 9.7 25.7 0.00 0.00 0.00 36 1007.0
20260505225102 26 218 9.7 24.1 0.00 0.00 0.00 37 1006.9
20260505224559 26 194 12.9 24.1 0.00 0.00 0.00 36 1006.9
20260505224057 26 266 12.9 17.7 0.00 0.00 0.00 37 1006.6
20260505223554 26 204 9.7 24.1 0.00 0.00 0.00 38 1007.0
20260505223050 26 244 12.9 22.5 0.00 0.00 0.00 36 1007.2
20260505222546 26 211 9.7 14.5 0.00 0.00 0.00 37 1007.2
20260505222043 26 197 8.0 16.1 0.00 0.00 0.00 37 1007.1
20260505221540 26 205 8.0 25.7 0.00 0.00 0.00 36 1006.7
20260505221036 26 102 4.8 17.7 0.00 0.00 0.00 36 1007.4
20260505220533 26 192 12.9 20.9 0.00 0.00 0.00 36 1007.2
20260505220031 26 219 12.9 29.0 0.00 0.00 0.00 36 1006.9
20260505215529 26 218 27.4 37.0 0.00 0.00 0.00 35 1006.7
20260505215027 26 203 8.0 20.9 0.00 0.00 0.00 36 1007.1
20260505214525 26 187 9.7 29.0 0.00 0.00 0.00 36 1006.9
20260505214021 26 240 20.9 29.0 0.00 0.00 0.00 35 1007.1
20260505213519 26 182 17.7 25.7 0.00 0.00 0.00 36 1006.7
20260505213015 26 194 24.1 33.8 0.00 0.00 0.00 35 1006.9
20260505212512 26 192 22.5 29.0 0.00 0.00 0.00 36 1007.1
20260505212009 27 199 16.1 25.7 0.00 0.00 0.00 36 1006.7
20260505211506 27 198 19.3 32.2 0.00 0.00 0.00 36 1007.0
20260505211003 27 190 16.1 25.7 0.00 0.00 0.00 38 1006.6
20260505210459 27 199 14.5 32.2 0.00 0.00 0.00 38 1006.9
20260505205956 27 244 17.7 38.6 0.00 0.00 0.00 36 1006.9
20260505205455 27 203 20.9 38.6 0.00 0.00 0.00 36 1006.7
20260505204951 27 213 24.1 35.4 0.00 0.00 0.00 37 1006.6
20260505204449 27 201 12.9 25.7 0.00 0.00 0.00 37 1006.9
20260505203946 27 218 14.5 32.2 0.00 0.00 0.00 37 1006.6
20260505203442 27 205 11.3 24.1 0.00 0.00 0.00 37 1006.4
20260505202939 27 186 4.8 14.5 0.00 0.00 0.00 40 1006.9
20260505202435 27 227 12.9 29.0 0.00 0.00 0.00 38 1006.6
20260505201932 27 189 11.3 16.1 0.00 0.00 0.00 38 1006.6
20260505201429 27 152 19.3 29.0 0.00 0.00 0.00 37 1006.9
20260505200927 27 216 25.7 35.4 0.00 0.00 0.00 38 1006.9
20260505200424 27 192 12.9 20.9 0.00 0.00 0.00 40 1006.9
20260505195919 27 200 4.8 17.7 0.00 0.00 0.00 40 1006.9
20260505195417 27 115 12.9 24.1 0.00 0.00 0.00 39 1007.1
20260505194914 27 191 4.8 24.1 0.00 0.00 0.00 39 1007.1
20260505194412 27 191 14.5 29.0 0.00 0.00 0.00 40 1007.2
20260505193911 27 190 11.3 33.8 0.00 0.00 0.00 40 1007.0
20260505193409 27 184 17.7 32.2 0.00 0.00 0.00 40 1007.3
20260505192907 27 212 11.3 27.4 0.00 0.00 0.00 41 1007.2
20260505192405 27 208 19.3 27.4 0.00 0.00 0.00 39 1007.4
20260505191902 27 206 9.7 35.4 0.00 0.00 0.00 41 1007.3
20260505191401 27 203 6.4 12.9 0.00 0.00 0.00 43 1007.5
20260505190857 27 190 14.5 17.7 0.00 0.00 0.00 40 1007.6
20260505190353 27 247 4.8 20.9 0.00 0.00 0.00 40 1007.6
20260505185848 27 189 17.7 24.1 0.00 0.00 0.00 38 1007.8
20260505185345 27 230 8.0 27.4 0.00 0.00 0.00 40 1007.8
20260505184841 27 203 12.9 17.7 0.00 0.00 0.00 39 1007.7
20260505184338 27 190 11.3 17.7 0.00 0.00 0.00 39 1007.9
20260505183835 26 177 4.8 20.9 0.00 0.00 0.00 43 1008.1
20260505183332 27 277 22.5 32.2 0.00 0.00 0.00 38 1008.1
20260505182829 26 219 14.5 29.0 0.00 0.00 0.00 42 1008.1
20260505182326 27 204 17.7 22.5 0.00 0.00 0.00 41 1008.4
20260505181822 26 218 4.8 27.4 0.00 0.00 0.00 42 1008.1
20260505181320 26 173 14.5 17.7 0.00 0.00 0.00 40 1008.2
20260505180816 26 221 16.1 25.7 0.00 0.00 0.00 43 1008.4
20260505180313 27 200 9.7 24.1 0.00 0.00 0.00 42 1008.4
20260505175809 26 205 12.9 37.0 0.00 0.00 0.00 41 1008.4
20260505175306 26 212 6.4 24.1 0.00 0.00 0.00 43 1008.2
20260505174802 26 221 19.3 24.1 0.00 0.00 0.00 42 1008.5
20260505174300 26 230 16.1 33.8 0.00 0.00 0.00 42 1008.6
20260505173755 26 219 12.9 25.7 0.00 0.00 0.00 42 1008.6
20260505173252 26 152 11.3 25.7 0.00 0.00 0.00 44 1008.6
20260505172749 26 212 14.5 22.5 0.00 0.00 0.00 43 1008.7
20260505172246 26 191 17.7 24.1 0.00 0.00 0.00 41 1008.6
20260505171746 26 204 11.3 37.0 0.00 0.00 0.00 42 1008.7
20260505171243 26 193 4.8 24.1 0.00 0.00 0.00 44 1008.4
20260505170740 26 187 14.5 29.0 0.00 0.00 0.00 42 1008.6
20260505170237 26 341 17.7 24.1 0.00 0.00 0.00 42 1008.9
20260505165732 26 261 14.5 20.9 0.00 0.00 0.00 41 1008.9
20260505165229 26 209 6.4 32.2 0.00 0.00 0.00 42 1009.2
20260505164724 26 218 19.3 24.1 0.00 0.00 0.00 42 1009.0
20260505164222 26 191 12.9 20.9 0.00 0.00 0.00 44 1009.4
20260505163720 25 288 6.4 16.1 0.00 0.00 0.00 43 1009.5
20260505163218 25 206 19.3 24.1 0.00 0.00 0.00 42 1009.5
20260505162715 26 193 19.3 24.1 0.00 0.00 0.00 42 1009.6
20260505162212 26 213 8.0 24.1 0.00 0.00 0.00 44 1009.7
20260505161709 26 160 8.0 16.1 0.00 0.00 0.00 44 1009.8
20260505161206 25 229 4.8 16.1 0.00 0.00 0.00 43 1009.8
20260505160704 26 252 16.1 20.9 0.00 0.00 0.00 42 1010.1
20260505160201 25 209 16.1 20.9 0.00 0.00 0.00 43 1009.7
20260505153140 25 242 4.8 14.5 0.00 0.00 0.00 47 1009.9
20260505152637 25 206 9.7 12.9 0.00 0.00 0.00 47 1010.1
20260505152133 25 276 9.7 20.9 0.00 0.00 0.00 49 1009.8
20260505151629 25 160 6.4 16.1 0.00 0.00 0.00 49 1010.1
20260505151126 24 232 11.3 27.4 0.00 0.00 0.00 50 1010.1
20260505150622 24 217 12.9 17.7 0.00 0.00 0.00 50 1009.9
20260505150119 24 211 11.3 16.1 0.00 0.00 0.00 50 1009.7
20260505140547 21 220 6.4 12.9 0.00 0.00 0.00 61 1010.0
20260505125001 17 166 4.8 9.7 0.00 0.00 0.00 70 1010.7
20260505124457 17 202 3.2 9.7 0.00 0.00 0.00 71 1010.8
20260505123954 17 178 6.4 8.0 0.00 0.00 0.00 72 1011.1
20260505123450 16 35 6.4 11.3 0.00 0.00 0.00 72 1010.9
20260505122946 16 223 3.2 8.0 0.00 0.00 0.00 75 1010.8
20260505122444 16 171 4.8 9.7 0.00 0.00 0.00 75 1011.0
20260505121940 16 234 3.2 9.7 0.00 0.00 0.00 76 1011.0
20260505121437 15 202 9.7 16.1 0.00 0.00 0.00 75 1010.8
20260505120933 15 196 8.0 12.9 0.00 0.00 0.00 75 1010.9
20260505120430 15 178 6.4 11.3 0.00 0.00 0.00 77 1010.9
20260505115929 15 218 9.7 14.5 0.00 0.00 0.00 76 1010.9
20260505115426 15 188 11.3 12.9 0.00 0.00 0.00 76 1010.9
20260505114924 15 212 9.7 12.9 0.00 0.00 0.00 76 1010.8
20260505114420 15 192 4.8 11.3 0.00 0.00 0.00 77 1010.8
20260505113916 15 188 8.0 11.3 0.00 0.00 0.00 77 1010.8
20260505113413 15 210 6.4 11.3 0.00 0.00 0.00 78 1010.7
20260505112909 15 188 8.0 17.7 0.00 0.00 0.00 77 1010.6
20260505112407 14 162 8.0 11.3 0.00 0.00 0.00 78 1010.6
20260505111902 14 181 8.0 16.1 0.00 0.00 0.00 77 1010.6
20260505111357 14 178 1.6 16.1 0.00 0.00 0.00 78 1010.2
20260505110854 14 210 8.0 12.9 0.00 0.00 0.00 78 1010.6
20260505110351 14 213 6.4 14.5 0.00 0.00 0.00 79 1010.5
20260505101821 13 218 4.8 8.0 0.00 0.00 0.00 81 1009.8
20260505101316 13 198 4.8 9.7 0.00 0.00 0.00 81 1010.2
20260505100812 13 215 4.8 11.3 0.00 0.00 0.00 80 1009.4
20260505100309 13 164 8.0 9.7 0.00 0.00 0.00 80 1010.0
20260505095805 14 200 3.2 12.9 0.00 0.00 0.00 79 1009.8
20260505095304 14 177 6.4 11.3 0.00 0.00 0.00 79 1009.7
20260505094758 14 176 11.3 14.5 0.00 0.00 0.00 79 1009.8
20260505094255 14 189 9.7 12.9 0.00 0.00 0.00 79 1009.5
20260505093751 14 209 6.4 11.3 0.00 0.00 0.00 78 1009.6
20260505093249 14 181 8.0 11.3 0.00 0.00 0.00 79 1009.5
20260505092745 14 211 8.0 12.9 0.00 0.00 0.00 79 1009.6
20260505092244 14 206 6.4 12.9 0.00 0.00 0.00 80 1009.8
20260505091741 14 179 6.4 9.7 0.00 0.00 0.00 80 1009.4
20260505091239 14 205 9.7 11.3 0.00 0.00 0.00 79 1009.3
20260505090736 14 207 9.7 14.5 0.00 0.00 0.00 78 1009.7
20260505090235 14 200 3.2 14.5 0.00 0.00 0.00 79 1009.6
20260505085732 14 207 4.8 17.7 0.00 0.00 0.00 78 1009.4
20260505085230 15 199 9.7 12.9 0.00 0.00 0.00 78 1009.4
20260505084727 15 212 6.4 20.9 0.00 0.00 0.00 77 1009.5
20260505084226 15 207 6.4 11.3 0.00 0.00 0.00 77 1009.4
20260505083722 15 225 8.0 11.3 0.00 0.00 0.00 77 1009.2
20260505083219 15 212 3.2 11.3 0.00 0.00 0.00 77 1009.3
20260505082715 15 220 6.4 9.7 0.00 0.00 0.00 77 1009.0
20260505082213 15 239 3.2 8.0 0.00 0.00 0.00 76 1009.2
20260505081708 15 227 4.8 16.1 0.00 0.00 0.00 76 1008.9
20260505081206 15 195 4.8 11.3 0.00 0.00 0.00 76 1009.3
20260505080703 15 197 4.8 9.7 0.00 0.00 0.00 75 1009.3
20260505080158 15 191 8.0 11.3 0.00 0.00 0.00 76 1009.2
20260505075654 15 202 6.4 12.9 0.00 0.00 0.00 75 1009.4
20260505075151 15 188 6.4 16.1 0.00 0.00 0.00 75 1009.2
20260505074648 15 187 11.3 14.5 0.00 0.00 0.00 75 1008.9
20260505074145 15 140 8.0 12.9 0.00 0.00 0.00 75 1009.1
20260505073643 15 188 9.7 14.5 0.00 0.00 0.00 74 1009.2
20260505073141 15 185 8.0 12.9 0.00 0.00 0.00 75 1009.1
20260505072636 15 211 4.8 12.9 0.00 0.00 0.00 75 1009.0
20260505072133 15 213 9.7 12.9 0.00 0.00 0.00 76 1009.1
20260505071629 15 200 6.4 8.0 0.00 0.00 0.00 76 1008.8
20260505071127 14 196 3.2 4.8 0.00 0.00 0.00 77 1009.0
20260505070624 15 210 3.2 4.8 0.00 0.00 0.00 76 1008.9
20260505070120 15 209 3.2 4.8 0.00 0.00 0.00 76 1008.9
20260505065616 15 206 3.2 4.8 0.00 0.00 0.00 75 1009.2
20260505065113 15 205 3.2 8.0 0.00 0.00 0.00 75 1009.1
20260505064609 15 224 3.2 9.7 0.00 0.00 0.00 73 1009.0
20260505064108 15 204 4.8 8.0 0.00 0.00 0.00 74 1009.0
20260505063605 15 195 6.4 9.7 0.00 0.00 0.00 73 1009.3
20260505063101 15 210 8.0 14.5 0.00 0.00 0.00 73 1009.2
20260505062557 15 205 4.8 9.7 0.00 0.00 0.00 73 1009.2
20260505062055 15 187 4.8 12.9 0.00 0.00 0.00 72 1009.1
20260505061552 15 191 6.4 12.9 0.00 0.00 0.00 73 1009.1
20260505061050 15 170 8.0 12.9 0.00 0.00 0.00 73 1009.1
20260505060547 15 232 4.8 8.0 0.00 0.00 0.00 74 1009.0
20260505060044 15 191 4.8 9.7 0.00 0.00 0.00 74 1009.0
20260505055539 15 196 6.4 9.7 0.00 0.00 0.00 74 1009.1
20260505055036 15 214 1.6 9.7 0.00 0.00 0.00 73 1009.2
20260505054533 15 212 1.6 8.0 0.00 0.00 0.00 73 1009.1
20260505054032 15 206 3.2 4.8 0.00 0.00 0.00 72 1009.2
20260505053528 16 214 1.6 3.2 0.00 0.00 0.00 72 1009.1
20260505053025 16 202 4.8 8.0 0.00 0.00 0.00 71 1009.2
20260505052522 16 204 6.4 9.7 0.00 0.00 0.00 70 1009.2
20260505052019 16 211 4.8 8.0 0.00 0.00 0.00 71 1009.4
20260505051516 16 224 3.2 9.7 0.00 0.00 0.00 71 1009.2
20260505051014 16 190 4.8 8.0 0.00 0.00 0.00 71 1009.2
20260505050512 16 200 3.2 8.0 0.00 0.00 0.00 71 1009.1
20260505041440 17 235 3.2 4.8 0.00 0.00 0.00 66 1009.0
20260505040937 17 189 4.8 8.0 0.00 0.00 0.00 65 1008.8
20260505040434 17 218 3.2 8.0 0.00 0.00 0.00 65 1008.8
20260505035931 17 209 4.8 9.7 0.00 0.00 0.00 64 1008.7
20260505035427 17 210 4.8 14.5 0.00 0.00 0.00 63 1008.9
20260505034925 18 234 4.8 11.3 0.00 0.00 0.00 63 1008.5
20260505034421 18 212 4.8 9.7 0.00 0.00 0.00 63 1009.0
20260505033918 18 199 0.0 11.3 0.00 0.00 0.00 63 1008.7
20260505033414 18 199 4.8 9.7 0.00 0.00 0.00 62 1008.7
20260505032913 18 188 6.4 11.3 0.00 0.00 0.00 61 1008.8
20260505032409 18 204 9.7 14.5 0.00 0.00 0.00 60 1008.9
20260505031906 18 235 4.8 12.9 0.00 0.00 0.00 60 1008.9
20260505031403 18 205 6.4 11.3 0.00 0.00 0.00 60 1008.7
20260505030900 18 210 6.4 12.9 0.00 0.00 0.00 60 1008.8
20260505030356 18 200 6.4 12.9 0.00 0.00 0.00 59 1008.9
20260505025851 18 214 6.4 14.5 0.00 0.00 0.00 59 1009.0
20260505025349 18 223 9.7 12.9 0.00 0.00 0.00 59 1008.9
20260505024848 18 207 9.7 11.3 0.00 0.00 0.00 59 1008.9
20260505024345 19 187 6.4 12.9 0.00 0.00 0.00 59 1008.9
20260505023842 18 242 6.4 11.3 0.00 0.00 0.00 59 1009.0
20260505023339 18 223 6.4 11.3 0.00 0.00 0.00 59 1008.9
20260505022836 19 189 1.6 12.9 0.00 0.00 0.00 58 1008.9
20260505022333 18 208 8.0 16.1 0.00 0.00 0.00 58 1009.0
20260505021830 18 257 4.8 9.7 0.00 0.00 0.00 58 1008.8
20260505021327 18 177 8.0 9.7 0.00 0.00 0.00 57 1008.9
20260505020822 19 225 3.2 8.0 0.00 0.00 0.00 57 1009.1
20260505020318 19 234 3.2 8.0 0.00 0.00 0.00 57 1008.8
20260505015815 20 255 3.2 3.2 0.00 0.00 0.00 56 1008.8
20260505015313 20 216 3.2 12.9 0.00 0.00 0.00 55 1008.8
20260505014810 20 202 4.8 8.0 0.00 0.00 0.00 55 1008.6
20260505014307 20 221 4.8 11.3 0.00 0.00 0.00 54 1008.8
20260505013803 20 236 6.4 9.7 0.00 0.00 0.00 54 1008.5
20260505013300 20 237 4.8 9.7 0.00 0.00 0.00 53 1008.6
20260505012758 20 199 4.8 8.0 0.00 0.00 0.00 53 1008.8
20260505012256 20 252 1.6 4.8 0.00 0.00 0.00 53 1008.7
20260505011752 20 244 3.2 8.0 0.00 0.00 0.00 52 1008.6
20260505011249 20 210 4.8 12.9 0.00 0.00 0.00 51 1008.3
20260505010744 21 227 4.8 9.7 0.00 0.00 0.00 51 1008.3
20260505010241 20 225 8.0 12.9 0.00 0.00 0.00 51 1008.0
20260505005737 20 201 4.8 16.1 0.00 0.00 0.00 50 1007.9
20260505005234 20 195 6.4 9.7 0.00 0.00 0.00 51 1008.0
20260505004731 21 174 3.2 12.9 0.00 0.00 0.00 50 1007.9
20260505004228 21 211 8.0 14.5 0.00 0.00 0.00 49 1007.8
20260505003725 21 187 9.7 16.1 0.00 0.00 0.00 49 1007.8
20260505003223 21 213 6.4 11.3 0.00 0.00 0.00 49 1008.0
20260505002719 21 180 8.0 16.1 0.00 0.00 0.00 48 1007.9